OpenBCM V1.13 (Linux)

Packet Radio Mailbox

DB0FHN

[JN59NK Nuernberg]

 Login: GUEST





  
I0OJJ  > AMSAT    27.08.26 22:48l 338 Lines 15960 Bytes #999 (0) @ WW
BID : 3MJ_IR0EQ
Read: GUEST DJ6UX
Subj: 2Line Orbital Elements
Path: DB0FHN<DB0FFL<OE2XZR<OE6XPE<DB0RKB<DK0WUE<HB9ON<IK7NXU<IK6IHL<IZ3LSV<
      I0OJJ<IR0EQ
Sent: 260809/0027z @:IR0EQ.ITA.EU [Rome] $:3MJ_IR0EQ

>From i0ojj%ir0eq.ita.eu@i0ojj.ampr.org Sun Aug  9 02:28:38 2026
Received: from i0ojj.ampr.org by i0ojj.ampr.org (JNOS2.0q.1) with SMTP
	id AA17064275 ; Sun, 09 Aug 2026 02:28:38 +0200
Message-Id: <3MJ_IR0EQ@i0ojj.bbs>
>From: i0ojj@ir0eq.ita.eu
X-JNOS-User-Port: Telnet   (i0ojj @ 44.27.18.9)  ->   Sending message

>From i0ojj@rgate.ampr.org Sun Aug  9 02:27:29 2026
Received: from rgate.ampr.org by rgate.ampr.org (JNOS2.0q.1) with SMTP
	id AA4699 ; Sun, 09 Aug 2026 02:27:29 +0200
Received: by rgate.ampr.org with SMTP
	id AA4696 ; Sun, 09 Aug 2026 02:27:03 +0200
Message-Id: <4697@rgate.ampr.org>
>From: i0ojj@rgate.ampr.org

SB KEPS @ AMSAT  $ORB26221.1
2Line Orbital Elements 26221.AMSAT

QST de W1STR

AMSAT Orbital Elements for Amateur Satellites in TLE Format
>From Orbital Analysis Office
New England Sci-Tech STEM Education Center
Natick MA August 09, 2026
To all radio amateurs


These element sets describe the orbits of various satellites 
in use by the amateur radio community. For details see:
www.amsat.org/keplerian-elements-formats/

A daily update of element sets is available at:
www.amsat.org/tle/daily-bulletin.txt
or without bulletin text:
www.amsat.org/tle/dailytle.txt


AO-07
1 07530U 74089B   26220.58281568 -.00000034  00000-0  76319-4 0  9996
2 07530 101.9916 234.3765 0012462  32.9196  85.9270 12.53698954367086
UO-11
1 14781U 84021B   26220.50582186  .00000824  00000-0  89227-4 0  9999
2 14781  97.8104 185.5128 0008134  22.7229 337.4348 14.90908836264925
LO-19
1 20442U 90005G   26220.29891852  .00000031  00000-0  27881-4 0  9996
2 20442  98.8845 243.5376 0012472  56.7287 303.5090 14.34136447909866
AO-27
1 22825U 93061C   26220.44250211  .00000019  00000-0  24127-4 0  9999
2 22825  98.6846 287.8279 0007442 312.4370  47.6183 14.30954257714474
FO-29
1 24278U 96046B   26220.43337598  .00000002  00000-0  40156-4 0  9994
2 24278  98.5202  62.1436 0349166 321.0154  36.6277 13.53276557480230
GO-32
1 25397U 98043D   26220.60597859  .00000019  00000-0  28192-4 0  9997
2 25397  99.0110 214.6961 0002343  76.6803 283.4636 14.24437357458794
ISS
1 25544U 98067A   26220.50489839  .00004539  00000-0  89319-4 0  9993
2 25544  51.6324  41.1734 0007358  25.6275 334.5077 15.49385107579860
NO-44
1 26931U 01043C   26220.40335286  .00000027  00000-0  41136-4 0  9990
2 26931  67.0506 109.2172 0005687 268.7859  91.2592 14.31973263297926
SO-50
1 27607U 02058C   26220.61588067  .00000561  00000-0  83942-4 0  9992
2 27607  64.5536 326.7595 0073712 252.8490 106.4536 14.83148789272234
CO-55
1 27844U 03031E   26220.51186808  .00000150  00000-0  83993-4 0  9993
2 27844  98.6756 228.4168 0010349  39.6126 320.5807 14.24364268199120
RS-22
1 27939U 03042A   26220.63607078  .00000624  00000-0  10410-3 0  9999
2 27939  98.3491  46.4851 0012531 100.7217 324.3481 14.73552585223270
CO-65
1 32785U 08021C   26220.61041967  .00002182  00000-0  13878-3 0  9995
2 32785  97.8321 203.1493 0007946 198.6086 161.4853 15.09897123993108
CO-66
1 32791U 08021J   26220.52937362  .00009406  00000-0  28443-3 0  9995
2 32791  97.7546 221.0004 0004876 112.1779 247.9980 15.34437983995317
RS-30
1 32953U 08025A   26220.65066637 -.00000025  00000-0 -25127-3 0  9997
2 32953  82.5071 322.8099 0019496 193.8226 166.2322 12.43181628826217
SRMSAT
1 37841U 11058D   26220.40848197  .00000326  00000-0  32973-4 0  9990
2 37841  19.9717 103.3789 0011747  59.1088  98.7172 14.11585495765208
ZACUBE-1
1 39417U 13066B   26220.39384807  .00002356  00000-0  18357-3 0  9997
2 39417  97.7990 182.9774 0043200  77.4855 283.1197 15.01483891688564
Delfi-N3xt
1 39428U 13066N   26220.30512666  .00003756  00000-0  32483-3 0  9997
2 39428  97.8297 140.5779 0074655  34.3397 326.2617 14.95662207682419
GOMX-1
1 39430U 13066Q   26220.61481064  .00000713  00000-0  11414-3 0  9992
2 39430  97.6464  57.7720 0126753 269.1345  89.5338 14.69592787677610
LO-74
1 39440U 13066AA  26220.64082703  .00001062  00000-0  10217-3 0  9991
2 39440  97.8932 169.8630 0056120 212.1120 147.6677 14.94094469684822
AO-73
1 39444U 13066AE  26220.34777252  .00004454  00000-0  27301-3 0  9992
2 39444  97.8312 192.9180 0036639  28.9553 331.3698 15.10145636687539
DTUSAT-2
1 40030U 14033W   26220.27233902  .00003478  00000-0  18677-3 0  9992
2 40030  98.0897 221.3378 0009391  64.5453 295.6748 15.15633742660577
LILACSAT-2
1 40908U 15049K   26220.61601554  .00010381  00000-0  16700-3 0  9990
2 40908  97.4617 259.4994 0008250  71.5002 288.7146 15.53147418603889
Lapan A3
1 41603U 16040E   26220.59717919  .00001957  00000-0  62871-4 0  9995
2 41603  97.1528 215.0413 0010067 176.2801 183.8518 15.33408722562847
CAS-2T
1 41847U 16066G   26220.45872971  .00000256  00000-0  45812-4 0  9995
2 41847  98.3795 295.5972 0340738 331.1475  27.1240 14.44800960512342
TechnoSat
1 42829U 17042E   26220.43815305  .00001872  00000-0  13496-3 0  9994
2 42829  97.4347  16.1356 0015986 275.8468  84.0936 15.05227132494568
AO-91
1 43017U 17073E   26220.52012525  .00005317  00000-0  22899-3 0  9996
2 43017  97.4637  86.6690 0149522 147.2918 213.7682 15.13384701473302
S-Net D
1 43186U 18014G   26220.64077970  .00002242  00000-0  11648-3 0  9991
2 43186  97.5300 125.1044 0007737 183.4532 176.6649 15.17111432466714
S-Net B
1 43187U 18014H   26220.58732327  .00002182  00000-0  11355-3 0  9997
2 43187  97.5306 125.0394 0008504 180.0811 180.0422 15.17080000466707
S-Net A
1 43188U 18014J   26220.63937174  .00002272  00000-0  11797-3 0  9991
2 43188  97.5316 125.3100 0008347 180.3965 179.7263 15.17119645466712
S-Net C
1 43189U 18014K   26220.59150343  .00002207  00000-0  11483-3 0  9992
2 43189  97.5332 125.3453 0009916 175.1551 184.9780 15.17070074465250
Ten-Koh
1 43677U 18084G   26220.51670093  .00000389  00000-0  33736-4 0  9997
2 43677  98.0749  55.0899 0008311 310.5732  49.4768 15.03126762424029
PO-101
1 43678U 18084H   26220.58287660  .00000713  00000-0  61597-4 0  9996
2 43678  98.1221  59.0942 0011075   4.1733 355.9580 15.00636684424075
QO-100
1 43700U 18090A   26220.58534339  .00000140  00000-0  00000-0 0  9999
2 43700   0.0123 100.2303 0002377  76.8882  16.4632  1.00269738 28209
MinXSS-2
1 43758U 18099A   26220.49238161  .00022637  00000-0  39676-3 0  9994
2 43758  97.4496 298.4386 0007549  83.8778 276.3334 15.50558930422225
AO-95
1 43770U 18099N   26219.96958928  .00006096  00000-0  22742-3 0  9995
2 43770  97.4350 280.0507 0009419 155.1895 204.9799 15.27741540421126
SNUSat 2
1 43782U 18099AA  26220.59329043  .00003966  00000-0  17352-3 0  9993
2 43782  97.4028 273.1866 0011844 110.4400 249.8109 15.22580326421001
SnugLite
1 43784U 18099AC  26220.60851631  .00005686  00000-0  20933-3 0  9990
2 43784  97.3836 274.3994 0004651 103.4590 256.7168 15.28235871421329
ITASat 1
1 43786U 18099AE  26220.57736782  .00003252  00000-0  15543-3 0  9995
2 43786  97.3997 271.0534 0013042 162.0472 198.1226 15.19650340420861
EAGLET 1
1 43790U 18099AJ  26220.56049725  .00002125  00000-0  12282-3 0  9998
2 43790  97.4199 268.8428 0011776 156.9234 203.2529 15.13293471420256
ESEO
1 43792U 18099AL  26220.59589231  .00000804  00000-0  61675-4 0  9997
2 43792  97.3936 255.7362 0012683 148.6314 211.5672 15.04380355419687
JO-97
1 43803U 18099AX  26220.13479886  .00009964  00000-0  29320-3 0  9990
2 43803  97.4093 283.1960 0007139  91.0679 269.1382 15.35253042421595
Suomi 100
1 43804U 18099AY  26220.43103478  .00005947  00000-0  20980-3 0  9995
2 43804  97.4156 280.6598 0011424  96.8441 263.4099 15.29569253421406
ISAT
1 43879U 18111D   26220.33919164  .00103209  00000-0  62578-3 0  9997
2 43879  97.5818 160.0054 0009370 110.2329 249.9944 15.77185855419359
UWE-4
1 43880U 18111E   26220.32614182  .00017646  00000-0  32384-3 0  9991
2 43880  97.5826 151.2403 0009580 122.8949 237.3224 15.49284493418842
Sparrow
1 43881U 18111F   26220.38041100  .00644471  20662-3  90833-3 0  9996
2 43881  97.6001 167.1133 0011486 152.0256 208.1645 16.05644707419642
Prox-1
1 44339U 19036A   26220.05075311  .00006973  00000-0  64752-3 0  9998
2 44339  23.9936 127.4860 0005824 275.5973  84.3862 14.91741218381227
Taurus 1
1 44530U 19059C   26220.57110845  .00003217  00000-0  51399-3 0  9996
2 44530  98.6464  28.6833 0009387 141.9410 218.2460 14.72593807366354
TO-108
1 44881U 19093C   26220.61451216  .00000585  00000-0  71907-4 0  9991
2 44881  97.7496 291.5612 0012035 275.6877  84.2967 14.86591471359209
RS-44
1 44909U 19096E   26220.62022229  .00000003  00000-0 -32949-4 0  9993
2 44909  82.5237 304.8701 0217792  22.0806 338.9503 12.79748764309057
SALSAT
1 46495U 20068K   26220.52681906  .00003994  00000-0  13822-3 0  9997
2 46495  97.8876 226.8101 0011340 115.2472 244.9944 15.30480003323363
CSS (TIANHE-1)
1 48274U 21035A   26220.63002771  .00010743  00000-0  13867-3 0  9997
2 48274  41.4696   3.6459 0001074 264.2737  95.7979 15.58898129301351
TeikyoSat 4
1 49396U 21102B   26220.61844526  .00001193  00000-0  77750-4 0  9999
2 49396  97.3657 248.0634 0013657 110.2034 250.0666 15.09673798260637
Z-Sat
1 49399U 21102E   26220.65342108  .00001343  00000-0  67831-4 0  9991
2 49399  97.3308 254.3877 0018238  66.4567 293.8581 15.18630735261406
KOSEN 1
1 49402U 21102H   26220.36276732  .00003621  00000-0  13686-3 0  9992
2 49402  97.3160 261.5201 0014065  30.5136 329.6918 15.27526170261988
HO-113
1 50466U 21131B   26220.60410439  .00000351  00000-0  12200-3 0  9995
2 50466  98.4976 312.7112 0003055 314.0709  46.0228 14.41400807242661
SNUGLITE 2
1 52899U 22065F   26220.37061170  .00000481  00000-0  10008-3 0  9990
2 52899  98.2269   5.1307 0006769 211.2759 148.8042 14.64432518218637
UmKA 1 (RS40S)
1 57172U 23091G   26220.58947467  .00002848  00000-0  13011-3 0  9990
2 57172  97.5016 279.0932 0010897 299.9729  60.0424 15.21354110171970
